Time,TemperatureF,DewpointF,PressureIn,WindDirection,WindDirectionDegrees,WindSpeedMPH,WindSpeedGustMPH,Humidity,HourlyPrecipIn,Conditions,Clouds,dailyrainin,SoftwareType,DateUTC
2013-03-29 00:04:00,43.0,9.7,30.06,North,-999,0.0,0.0,25,0.00,,,-99.99,FreeWX-Wi 1.02,2013-03-29 04:04:00,
2013-03-29 00:09:00,43.0,9.7,30.06,North,-999,0.0,0.0,25,0.00,,,-99.99,FreeWX-Wi 1.02,2013-03-29 04:09:00,
2013-03-29 00:14:00,43.0,9.7,30.06,North,-999,0.0,0.0,25,0.00,,,-99.99,FreeWX-Wi 1.02,2013-03-29 04:14:00,
2013-03-29 00:19:00,43.2,9.7,30.06,North,-999,0.0,2.7,25,0.00,,,-99.99,FreeWX-Wi 1.02,2013-03-29 04:19:00,
2013-03-29 00:24:00,43.0,9.7,30.06,North,-999,0.0,0.0,25,0.00,,,-99.99,FreeWX-Wi 1.02,2013-03-29 04:24:00,
2013-03-29 00:29:00,43.0,9.7,30.06,North,-999,0.0,0.0,25,0.00,,,-99.99,FreeWX-Wi 1.02,2013-03-29 04:29:00,
2013-03-29 00:34:00,43.0,9.7,30.06,North,-999,0.0,3.1,25,0.00,,,-99.99,FreeWX-Wi 1.02,2013-03-29 04:34:00,
2013-03-29 00:39:00,43.0,9.7,30.06,North,-999,0.0,2.7,25,0.00,,,-99.99,FreeWX-Wi 1.02,2013-03-29 04:39:00,
2013-03-29 00:44:00,43.0,9.7,30.06,North,-999,0.0,0.0,25,0.00,,,-99.99,FreeWX-Wi 1.02,2013-03-29 04:44:00,
2013-03-29 00:49:00,43.2,9.7,30.06,North,-999,0.0,3.6,25,0.00,,,-99.99,FreeWX-Wi 1.02,2013-03-29 04:49:00,
2013-03-29 00:54:00,43.0,9.7,30.06,North,-999,0.0,4.0,25,0.00,,,-99.99,FreeWX-Wi 1.02,2013-03-29 04:54:00,
2013-03-29 00:59:00,43.0,9.7,30.06,North,-999,0.0,0.0,25,0.00,,,-99.99,FreeWX-Wi 1.02,2013-03-29 04:59:00,
2013-03-29 01:04:00,43.0,9.7,30.06,North,-999,0.0,3.6,25,0.00,,,-99.99,FreeWX-Wi 1.02,2013-03-29 05:04:00,
2013-03-29 01:09:00,42.8,9.5,30.06,North,-999,0.0,4.9,25,0.00,,,-99.99,FreeWX-Wi 1.02,2013-03-29 05:09:00,
2013-03-29 01:14:00,42.6,10.2,30.06,North,-999,0.0,0.0,26,0.00,,,-99.99,FreeWX-Wi 1.02,2013-03-29 05:14:00,
2013-03-29 01:19:00,42.4,10.0,30.06,North,-999,0.0,0.0,26,0.00,,,-99.99,FreeWX-Wi 1.02,2013-03-29 05:19:00,
2013-03-29 01:24:00,42.8,9.5,30.06,North,-999,0.0,0.0,25,0.00,,,-99.99,FreeWX-Wi 1.02,2013-03-29 05:24:00,
2013-03-29 01:29:00,42.6,10.2,30.06,North,-999,0.0,0.0,26,0.00,,,-99.99,FreeWX-Wi 1.02,2013-03-29 05:29:00,
2013-03-29 01:34:00,42.6,10.2,30.06,North,-999,0.0,0.0,26,0.00,,,-99.99,FreeWX-Wi 1.02,2013-03-29 05:34:00,
2013-03-29 01:39:00,42.6,10.2,30.06,North,-999,0.0,0.0,26,0.00,,,-99.99,FreeWX-Wi 1.02,2013-03-29 05:39:00,
2013-03-29 01:44:00,42.4,10.0,30.06,North,-999,0.0,3.1,26,0.00,,,-99.99,FreeWX-Wi 1.02,2013-03-29 05:44:00,
2013-03-29 01:49:00,42.6,10.2,30.06,North,-999,0.0,3.1,26,0.00,,,-99.99,FreeWX-Wi 1.02,2013-03-29 05:49:00,
2013-03-29 01:54:00,42.4,10.0,30.06,North,-999,0.0,3.1,26,0.00,,,-99.99,FreeWX-Wi 1.02,2013-03-29 05:54:00,
2013-03-29 01:59:00,42.6,10.2,30.06,North,-999,0.0,3.1,26,0.00,,,-99.99,FreeWX-Wi 1.02,2013-03-29 05:59:00,
2013-03-29 02:04:00,42.8,9.5,30.06,NW,321,1.0,3.6,25,0.00,,,-99.99,FreeWX-Wi 1.02,2013-03-29 06:04:00,
2013-03-29 02:09:00,42.8,9.5,30.06,NNW,327,1.0,3.6,25,0.00,,,-99.99,FreeWX-Wi 1.02,2013-03-29 06:09:00,
2013-03-29 02:14:00,42.8,9.5,30.06,NNW,334,1.0,3.1,25,0.00,,,-99.99,FreeWX-Wi 1.02,2013-03-29 06:14:00,
2013-03-29 02:19:00,42.6,10.2,30.06,NNW,336,1.0,4.0,26,0.00,,,-99.99,FreeWX-Wi 1.02,2013-03-29 06:19:00,
2013-03-29 02:24:00,42.6,10.2,30.06,NNW,336,1.0,3.1,26,0.00,,,-99.99,FreeWX-Wi 1.02,2013-03-29 06:24:00,
2013-03-29 02:29:00,42.3,9.9,30.06,NNW,334,1.0,3.1,26,0.00,,,-99.99,FreeWX-Wi 1.02,2013-03-29 06:29:00,
2013-03-29 02:34:00,42.1,9.7,30.06,NNW,331,1.0,0.0,26,0.00,,,-99.99,FreeWX-Wi 1.02,2013-03-29 06:34:00,
2013-03-29 02:39:00,42.1,9.7,30.06,NW,326,1.0,4.0,26,0.00,,,-99.99,FreeWX-Wi 1.02,2013-03-29 06:39:00,
2013-03-29 02:44:00,42.1,9.7,30.06,NW,323,1.0,4.0,26,0.00,,,-99.99,FreeWX-Wi 1.02,2013-03-29 06:44:00,
2013-03-29 02:49:00,41.9,9.5,30.06,NW,319,1.0,4.0,26,0.00,,,-99.99,FreeWX-Wi 1.02,2013-03-29 06:49:00,
2013-03-29 02:54:00,41.7,9.3,30.06,NW,320,1.0,3.1,26,0.00,,,-99.99,FreeWX-Wi 1.02,2013-03-29 06:54:00,
2013-03-29 02:59:00,41.7,9.3,30.06,NW,325,1.0,4.9,26,0.00,,,-99.99,FreeWX-Wi 1.02,2013-03-29 06:59:00,
2013-03-29 03:04:00,41.4,9.1,30.06,NNW,329,1.0,3.1,26,0.00,,,-99.99,FreeWX-Wi 1.02,2013-03-29 07:04:00,
2013-03-29 03:09:00,41.0,10.4,30.06,NNW,328,1.0,0.0,28,0.00,,,-99.99,FreeWX-Wi 1.02,2013-03-29 07:09:00,
2013-03-29 03:14:00,40.6,10.0,30.06,NNW,329,1.0,3.6,28,0.00,,,-99.99,FreeWX-Wi 1.02,2013-03-29 07:14:00,
2013-03-29 03:19:00,40.5,10.0,30.06,NNW,328,1.0,0.0,28,0.00,,,-99.99,FreeWX-Wi 1.02,2013-03-29 07:19:00,
2013-03-29 03:24:00,40.5,10.0,30.06,NNW,328,1.0,3.1,28,0.00,,,-99.99,FreeWX-Wi 1.02,2013-03-29 07:24:00,
2013-03-29 03:29:00,40.3,12.0,30.06,NW,325,1.0,3.1,31,0.00,,,-99.99,FreeWX-Wi 1.02,2013-03-29 07:29:00,
2013-03-29 03:34:00,40.1,11.8,30.06,NW,323,1.0,3.1,31,0.00,,,-99.99,FreeWX-Wi 1.02,2013-03-29 07:34:00,
2013-03-29 03:39:00,39.9,11.8,30.06,NW,323,1.0,3.6,31,0.00,,,-99.99,FreeWX-Wi 1.02,2013-03-29 07:39:00,
2013-03-29 03:44:00,40.1,11.8,30.06,NW,323,1.0,3.1,31,0.00,,,-99.99,FreeWX-Wi 1.02,2013-03-29 07:44:00,
2013-03-29 03:49:00,39.9,11.8,30.06,NW,325,2.0,3.1,31,0.00,,,-99.99,FreeWX-Wi 1.02,2013-03-29 07:49:00,
2013-03-29 03:54:00,40.1,11.8,30.06,NW,325,2.0,4.0,31,0.00,,,-99.99,FreeWX-Wi 1.02,2013-03-29 07:54:00,
2013-03-29 03:59:00,40.3,12.0,30.06,NNW,327,2.0,3.6,31,0.00,,,-99.99,FreeWX-Wi 1.02,2013-03-29 07:59:00,
2013-03-29 04:04:00,40.1,11.8,30.06,NNW,327,2.0,3.1,31,0.00,,,-99.99,FreeWX-Wi 1.02,2013-03-29 08:04:00,
2013-03-29 04:09:00,39.9,11.8,30.06,NNW,327,1.0,3.1,31,0.00,,,-99.99,FreeWX-Wi 1.02,2013-03-29 08:09:00,
2013-03-29 04:14:00,39.9,11.8,30.06,NNW,327,1.0,3.6,31,0.00,,,-99.99,FreeWX-Wi 1.02,2013-03-29 08:14:00,
2013-03-29 04:19:00,39.9,11.8,30.06,NW,326,1.0,3.6,31,0.00,,,-99.99,FreeWX-Wi 1.02,2013-03-29 08:19:00,
2013-03-29 04:24:00,40.1,11.8,30.06,NW,325,1.0,4.0,31,0.00,,,-99.99,FreeWX-Wi 1.02,2013-03-29 08:24:00,
2013-03-29 04:29:00,39.9,11.8,30.06,NW,323,1.0,3.1,31,0.00,,,-99.99,FreeWX-Wi 1.02,2013-03-29 08:29:00,
2013-03-29 04:34:00,39.9,9.5,30.06,NW,321,1.0,3.6,28,0.00,,,-99.99,FreeWX-Wi 1.02,2013-03-29 08:34:00,
2013-03-29 04:39:00,39.9,9.5,30.06,NW,317,1.0,2.7,28,0.00,,,-99.99,FreeWX-Wi 1.02,2013-03-29 08:39:00,
2013-03-29 04:44:00,39.9,11.8,30.06,NW,312,1.0,2.7,31,0.00,,,-99.99,FreeWX-Wi 1.02,2013-03-29 08:44:00,
2013-03-29 04:49:00,39.7,11.7,30.06,NW,309,1.0,2.7,31,0.00,,,-99.99,FreeWX-Wi 1.02,2013-03-29 08:49:00,
2013-03-29 04:54:00,39.7,9.3,30.06,NW,307,1.0,0.0,28,0.00,,,-99.99,FreeWX-Wi 1.02,2013-03-29 08:54:00,
2013-03-29 04:59:00,39.6,9.1,30.06,North,-999,0.0,0.0,28,0.00,,,-99.99,FreeWX-Wi 1.02,2013-03-29 08:59:00,
2013-03-29 05:04:00,39.4,11.3,30.06,North,-999,0.0,0.0,31,0.00,,,-99.99,FreeWX-Wi 1.02,2013-03-29 09:04:00,
2013-03-29 05:09:00,39.2,11.1,30.06,North,-999,0.0,0.0,31,0.00,,,-99.99,FreeWX-Wi 1.02,2013-03-29 09:09:00,
2013-03-29 05:14:00,38.8,10.8,30.06,North,-999,0.0,0.0,31,0.00,,,-99.99,FreeWX-Wi 1.02,2013-03-29 09:14:00,
2013-03-29 05:19:00,38.5,10.6,30.06,North,-999,0.0,0.0,31,0.00,,,-99.99,FreeWX-Wi 1.02,2013-03-29 09:19:00,
2013-03-29 05:24:00,38.5,10.6,30.06,North,-999,0.0,0.0,31,0.00,,,-99.99,FreeWX-Wi 1.02,2013-03-29 09:24:00,
2013-03-29 05:29:00,38.5,10.6,30.06,North,-999,0.0,0.0,31,0.00,,,-99.99,FreeWX-Wi 1.02,2013-03-29 09:29:00,
2013-03-29 05:34:00,38.1,10.2,30.06,North,-999,0.0,0.0,31,0.00,,,-99.99,FreeWX-Wi 1.02,2013-03-29 09:34:00,
2013-03-29 05:39:00,37.9,10.0,30.06,North,-999,0.0,0.0,31,0.00,,,-99.99,FreeWX-Wi 1.02,2013-03-29 09:39:00,
2013-03-29 05:44:00,37.9,12.0,30.06,North,-999,0.0,0.0,34,0.00,,,-99.99,FreeWX-Wi 1.02,2013-03-29 09:44:00,
2013-03-29 05:49:00,37.4,11.7,30.06,North,-999,0.0,0.0,34,0.00,,,-99.99,FreeWX-Wi 1.02,2013-03-29 09:49:00,
2013-03-29 05:54:00,37.2,11.5,30.06,North,-999,0.0,0.0,34,0.00,,,-99.99,FreeWX-Wi 1.02,2013-03-29 09:54:00,
2013-03-29 05:59:00,37.0,11.3,30.06,North,-999,0.0,0.0,34,0.00,,,-99.99,FreeWX-Wi 1.02,2013-03-29 09:59:00,
2013-03-29 06:05:00,36.9,13.1,30.06,North,-999,0.0,0.0,37,0.00,,,-99.99,FreeWX-Wi 1.02,2013-03-29 10:05:00,
2013-03-29 06:10:00,36.7,12.9,30.06,North,-999,0.0,0.0,37,0.00,,,-99.99,FreeWX-Wi 1.02,2013-03-29 10:10:00,
2013-03-29 06:15:00,36.7,12.9,30.06,North,-999,0.0,0.0,37,0.00,,,-99.99,FreeWX-Wi 1.02,2013-03-29 10:15:00,
2013-03-29 06:20:00,36.5,14.0,30.06,North,-999,0.0,0.0,39,0.00,,,-99.99,FreeWX-Wi 1.02,2013-03-29 10:20:00,
2013-03-29 06:25:00,36.5,14.0,30.06,North,-999,0.0,0.0,39,0.00,,,-99.99,FreeWX-Wi 1.02,2013-03-29 10:25:00,
2013-03-29 06:30:00,36.1,13.6,30.06,North,-999,0.0,0.0,39,0.00,,,-99.99,FreeWX-Wi 1.02,2013-03-29 10:30:00,
2013-03-29 06:35:00,36.0,16.2,30.06,North,-999,0.0,0.0,44,0.00,,,-99.99,FreeWX-Wi 1.02,2013-03-29 10:35:00,
2013-03-29 06:40:00,35.8,14.9,30.06,North,-999,0.0,0.0,42,0.00,,,-99.99,FreeWX-Wi 1.02,2013-03-29 10:40:00,
2013-03-29 06:45:00,35.6,15.8,30.06,North,-999,0.0,0.0,44,0.00,,,-99.99,FreeWX-Wi 1.02,2013-03-29 10:45:00,
2013-03-29 06:50:00,35.6,15.8,30.06,North,-999,0.0,0.0,44,0.00,,,-99.99,FreeWX-Wi 1.02,2013-03-29 10:50:00,
2013-03-29 06:55:00,35.6,16.3,30.09,North,-999,0.0,0.0,45,0.00,,,-99.99,FreeWX-Wi 1.02,2013-03-29 10:55:00,
2013-03-29 07:00:00,36.0,16.7,30.09,North,-999,0.0,0.0,45,0.00,,,-99.99,FreeWX-Wi 1.02,2013-03-29 11:00:00,
2013-03-29 07:05:00,36.1,16.9,30.09,North,-999,0.0,0.0,45,0.00,,,-99.99,FreeWX-Wi 1.02,2013-03-29 11:05:00,
2013-03-29 07:10:00,36.5,16.7,30.09,North,-999,0.0,0.0,44,0.00,,,-99.99,FreeWX-Wi 1.02,2013-03-29 11:10:00,
2013-03-29 07:15:00,36.9,17.1,30.09,North,-999,0.0,0.0,44,0.00,,,-99.99,FreeWX-Wi 1.02,2013-03-29 11:15:00,
2013-03-29 07:20:00,37.9,15.3,30.09,North,-999,0.0,2.2,39,0.00,,,-99.99,FreeWX-Wi 1.02,2013-03-29 11:20:00,
2013-03-29 07:25:00,39.0,13.1,30.09,North,-999,0.0,3.1,34,0.00,,,-99.99,FreeWX-Wi 1.02,2013-03-29 11:25:00,
2013-03-29 07:30:00,39.0,10.9,30.09,North,-999,0.0,3.1,31,0.00,,,-99.99,FreeWX-Wi 1.02,2013-03-29 11:30:00,
2013-03-29 07:35:00,39.6,11.5,30.09,West,273,1.0,4.0,31,0.00,,,-99.99,FreeWX-Wi 1.02,2013-03-29 11:35:00,
2013-03-29 07:40:00,40.8,10.2,30.09,West,270,1.0,2.7,28,0.00,,,-99.99,FreeWX-Wi 1.02,2013-03-29 11:40:00,
2013-03-29 07:45:00,41.7,9.3,30.09,West,267,1.0,0.0,26,0.00,,,-99.99,FreeWX-Wi 1.02,2013-03-29 11:45:00,
2013-03-29 07:50:00,41.9,9.5,30.09,West,265,1.0,3.1,26,0.00,,,-99.99,FreeWX-Wi 1.02,2013-03-29 11:50:00,
2013-03-29 07:55:00,42.8,9.5,30.09,West,267,1.0,0.0,25,0.00,,,-99.99,FreeWX-Wi 1.02,2013-03-29 11:55:00,
2013-03-29 08:00:00,44.1,9.7,30.09,North,-999,0.0,0.0,24,0.00,,,-99.99,FreeWX-Wi 1.02,2013-03-29 12:00:00,
2013-03-29 08:05:00,44.6,10.0,30.09,North,-999,0.0,3.6,24,0.00,,,-99.99,FreeWX-Wi 1.02,2013-03-29 12:05:00,
2013-03-29 08:10:00,44.1,9.7,30.09,North,-999,0.0,2.7,24,0.00,,,-99.99,FreeWX-Wi 1.02,2013-03-29 12:10:00,
2013-03-29 08:15:00,43.7,9.3,30.09,North,-999,0.0,4.0,24,0.00,,,-99.99,FreeWX-Wi 1.02,2013-03-29 12:15:00,
2013-03-29 08:20:00,44.8,10.2,30.09,North,-999,0.0,2.7,24,0.00,,,-99.99,FreeWX-Wi 1.02,2013-03-29 12:20:00,
2013-03-29 08:25:00,45.9,11.1,30.09,North,-999,0.0,2.7,24,0.00,,,-99.99,FreeWX-Wi 1.02,2013-03-29 12:25:00,
2013-03-29 08:30:00,46.0,11.3,30.09,NW,313,1.0,4.0,24,0.00,,,-99.99,FreeWX-Wi 1.02,2013-03-29 12:30:00,
2013-03-29 08:35:00,46.6,10.8,30.09,NW,322,1.0,4.9,23,0.00,,,-99.99,FreeWX-Wi 1.02,2013-03-29 12:35:00,
2013-03-29 08:40:00,46.6,10.8,30.09,NW,325,1.0,3.6,23,0.00,,,-99.99,FreeWX-Wi 1.02,2013-03-29 12:40:00,
2013-03-29 08:45:00,48.0,12.0,30.09,NNW,336,1.0,4.0,23,0.00,,,-99.99,FreeWX-Wi 1.02,2013-03-29 12:45:00,
2013-03-29 08:50:00,47.5,11.5,30.09,NNW,341,1.0,3.1,23,0.00,,,-99.99,FreeWX-Wi 1.02,2013-03-29 12:50:00,
2013-03-29 08:55:00,48.2,12.2,30.09,North,351,1.0,4.0,23,0.00,,,-99.99,FreeWX-Wi 1.02,2013-03-29 12:55:00,
2013-03-29 09:00:00,48.7,12.6,30.09,North,356,2.0,4.0,23,0.00,,,-99.99,FreeWX-Wi 1.02,2013-03-29 13:00:00,
2013-03-29 09:05:00,48.6,12.4,30.09,North,350,2.0,5.8,23,0.00,,,-99.99,FreeWX-Wi 1.02,2013-03-29 13:05:00,
2013-03-29 09:10:00,48.0,12.0,30.09,NNW,343,2.0,3.6,23,0.00,,,-99.99,FreeWX-Wi 1.02,2013-03-29 13:10:00,
2013-03-29 09:15:00,47.1,11.3,30.09,NNW,346,2.0,4.5,23,0.00,,,-99.99,FreeWX-Wi 1.02,2013-03-29 13:15:00,
2013-03-29 09:20:00,50.2,13.8,30.09,NNW,338,2.0,6.3,23,0.00,,,-99.99,FreeWX-Wi 1.02,2013-03-29 13:20:00,
2013-03-29 09:25:00,52.0,14.4,30.09,NNW,327,2.0,5.8,22,0.00,,,-99.99,FreeWX-Wi 1.02,2013-03-29 13:25:00,
2013-03-29 09:30:00,50.9,14.4,30.09,NW,321,3.0,4.0,23,0.00,,,-99.99,FreeWX-Wi 1.02,2013-03-29 13:30:00,
2013-03-29 09:35:00,49.5,13.3,30.09,NNW,328,2.0,4.0,23,0.00,,,-99.99,FreeWX-Wi 1.02,2013-03-29 13:35:00,
2013-03-29 09:40:00,50.2,13.8,30.09,NNW,338,2.0,4.0,23,0.00,,,-99.99,FreeWX-Wi 1.02,2013-03-29 13:40:00,
2013-03-29 09:45:00,50.7,14.4,30.09,NNW,328,2.0,4.9,23,0.00,,,-99.99,FreeWX-Wi 1.02,2013-03-29 13:45:00,
2013-03-29 09:50:00,50.0,13.6,30.09,NNW,328,3.0,5.8,23,0.00,,,-99.99,FreeWX-Wi 1.02,2013-03-29 13:50:00,
2013-03-29 09:55:00,50.2,13.8,30.09,NNW,333,3.0,6.3,23,0.00,,,-99.99,FreeWX-Wi 1.02,2013-03-29 13:55:00,
2013-03-29 10:00:00,50.9,14.4,30.09,NNW,333,3.0,6.3,23,0.00,,,-99.99,FreeWX-Wi 1.02,2013-03-29 14:00:00,
2013-03-29 10:05:00,52.7,14.9,30.09,NNW,329,3.0,5.8,22,0.00,,,-99.99,FreeWX-Wi 1.02,2013-03-29 14:05:00,
2013-03-29 10:10:00,53.1,15.3,30.09,NNW,327,3.0,5.8,22,0.00,,,-99.99,FreeWX-Wi 1.02,2013-03-29 14:10:00,
2013-03-29 10:15:00,55.4,16.2,30.09,NNW,329,3.0,4.0,21,0.00,,,-99.99,FreeWX-Wi 1.02,2013-03-29 14:15:00,
2013-03-29 10:20:00,56.3,16.9,30.09,NNW,327,3.0,5.8,21,0.00,,,-99.99,FreeWX-Wi 1.02,2013-03-29 14:20:00,
2013-03-29 10:25:00,56.7,17.2,30.09,NW,326,3.0,5.4,21,0.00,,,-99.99,FreeWX-Wi 1.02,2013-03-29 14:25:00,
2013-03-29 10:30:00,55.4,16.2,30.09,NNW,329,3.0,5.4,21,0.00,,,-99.99,FreeWX-Wi 1.02,2013-03-29 14:30:00,
2013-03-29 10:35:00,56.5,17.1,30.09,NNW,332,2.0,4.9,21,0.00,,,-99.99,FreeWX-Wi 1.02,2013-03-29 14:35:00,
2013-03-29 10:40:00,55.8,16.5,30.09,NNW,335,3.0,5.8,21,0.00,,,-99.99,FreeWX-Wi 1.02,2013-03-29 14:40:00,
2013-03-29 10:45:00,57.6,18.0,30.09,NNW,336,3.0,6.3,21,0.00,,,-99.99,FreeWX-Wi 1.02,2013-03-29 14:45:00,
2013-03-29 10:50:00,57.9,18.3,30.09,NNW,335,3.0,4.9,21,0.00,,,-99.99,FreeWX-Wi 1.02,2013-03-29 14:50:00,
2013-03-29 10:55:00,57.7,18.1,30.09,NNW,331,3.0,5.8,21,0.00,,,-99.99,FreeWX-Wi 1.02,2013-03-29 14:55:00,
2013-03-29 11:00:00,58.1,18.3,30.09,NW,317,3.0,5.8,21,0.00,,,-99.99,FreeWX-Wi 1.02,2013-03-29 15:00:00,
2013-03-29 11:05:00,57.7,18.1,30.09,NW,311,3.0,5.8,21,0.00,,,-99.99,FreeWX-Wi 1.02,2013-03-29 15:05:00,
2013-03-29 11:10:00,57.9,18.3,30.09,NW,310,3.0,4.9,21,0.00,,,-99.99,FreeWX-Wi 1.02,2013-03-29 15:10:00,
2013-03-29 11:15:00,58.5,18.7,30.09,NW,308,3.0,7.2,21,0.00,,,-99.99,FreeWX-Wi 1.02,2013-03-29 15:15:00,
2013-03-29 11:20:00,56.7,17.2,30.09,NW,313,3.0,4.5,21,0.00,,,-99.99,FreeWX-Wi 1.02,2013-03-29 15:20:00,
2013-03-29 11:25:00,55.8,16.5,30.09,NW,322,3.0,5.8,21,0.00,,,-99.99,FreeWX-Wi 1.02,2013-03-29 15:25:00,
2013-03-29 11:30:00,54.3,16.3,30.09,NNW,336,3.0,6.3,22,0.00,,,-99.99,FreeWX-Wi 1.02,2013-03-29 15:30:00,
2013-03-29 11:35:00,54.1,16.2,30.09,NNW,337,3.0,6.3,22,0.00,,,-99.99,FreeWX-Wi 1.02,2013-03-29 15:35:00,
2013-03-29 11:40:00,54.5,16.5,30.09,NNW,336,3.0,5.4,22,0.00,,,-99.99,FreeWX-Wi 1.02,2013-03-29 15:40:00,
2013-03-29 11:45:00,54.9,16.7,30.09,NNW,347,3.0,5.4,22,0.00,,,-99.99,FreeWX-Wi 1.02,2013-03-29 15:45:00,
2013-03-29 11:50:00,57.4,17.8,30.09,North,351,3.0,6.3,21,0.00,,,-99.99,FreeWX-Wi 1.02,2013-03-29 15:50:00,
2013-03-29 11:55:00,59.2,19.2,30.09,North,353,3.0,5.8,21,0.00,,,-99.99,FreeWX-Wi 1.02,2013-03-29 15:55:00,
2013-03-29 12:00:00,62.2,20.7,30.09,North,350,3.0,5.8,20,0.00,,,-99.99,FreeWX-Wi 1.02,2013-03-29 16:00:00,
2013-03-29 12:05:00,62.2,20.7,30.09,North,355,3.0,5.8,20,0.00,,,-99.99,FreeWX-Wi 1.02,2013-03-29 16:05:00,
2013-03-29 12:10:00,62.2,20.7,30.06,North,3,3.0,5.8,20,0.00,,,-99.99,FreeWX-Wi 1.02,2013-03-29 16:10:00,
2013-03-29 12:15:00,63.1,21.4,30.06,North,3,3.0,4.9,20,0.00,,,-99.99,FreeWX-Wi 1.02,2013-03-29 16:15:00,
2013-03-29 12:20:00,62.4,20.8,30.06,North,9,2.0,4.0,20,0.00,,,-99.99,FreeWX-Wi 1.02,2013-03-29 16:20:00,
2013-03-29 12:25:00,64.4,21.2,30.06,North,3,2.0,3.6,19,0.00,,,-99.99,FreeWX-Wi 1.02,2013-03-29 16:25:00,
2013-03-29 12:30:00,65.1,21.9,30.06,North,9,2.0,4.0,19,0.00,,,-99.99,FreeWX-Wi 1.02,2013-03-29 16:30:00,
2013-03-29 12:35:00,61.9,20.3,30.06,North,10,2.0,4.0,20,0.00,,,-99.99,FreeWX-Wi 1.02,2013-03-29 16:35:00,
2013-03-29 12:40:00,59.2,19.2,30.06,NNW,348,2.0,4.9,21,0.00,,,-99.99,FreeWX-Wi 1.02,2013-03-29 16:40:00,
2013-03-29 12:45:00,57.7,18.1,30.06,NNW,334,2.0,4.0,21,0.00,,,-99.99,FreeWX-Wi 1.02,2013-03-29 16:45:00,
2013-03-29 12:50:00,61.2,19.8,30.06,NW,311,2.0,3.6,20,0.00,,,-99.99,FreeWX-Wi 1.02,2013-03-29 16:50:00,
2013-03-29 12:55:00,59.2,19.2,30.06,NW,306,2.0,4.9,21,0.00,,,-99.99,FreeWX-Wi 1.02,2013-03-29 16:55:00,
2013-03-29 13:00:00,57.9,18.3,30.06,WNW,294,2.0,6.3,21,0.00,,,-99.99,FreeWX-Wi 1.02,2013-03-29 17:00:00,
2013-03-29 13:05:00,57.6,18.0,30.06,WNW,302,2.0,4.9,21,0.00,,,-99.99,FreeWX-Wi 1.02,2013-03-29 17:05:00,
2013-03-29 13:10:00,57.6,18.0,30.06,WNW,299,2.0,4.0,21,0.00,,,-99.99,FreeWX-Wi 1.02,2013-03-29 17:10:00,
2013-03-29 13:15:00,57.2,17.6,30.06,WNW,299,2.0,4.9,21,0.00,,,-99.99,FreeWX-Wi 1.02,2013-03-29 17:15:00,
2013-03-29 13:20:00,57.6,18.0,30.06,NW,308,2.0,3.6,21,0.00,,,-99.99,FreeWX-Wi 1.02,2013-03-29 17:20:00,
2013-03-29 13:25:00,62.2,20.7,30.03,WNW,288,2.0,6.3,20,0.00,,,-99.99,FreeWX-Wi 1.02,2013-03-29 17:25:00,
2013-03-29 13:30:00,60.1,19.9,30.03,WNW,288,2.0,5.4,21,0.00,,,-99.99,FreeWX-Wi 1.02,2013-03-29 17:30:00,
2013-03-29 13:35:00,59.4,19.4,30.03,West,274,2.0,4.0,21,0.00,,,-99.99,FreeWX-Wi 1.02,2013-03-29 17:35:00,
2013-03-29 13:40:00,58.8,19.0,30.03,West,269,2.0,4.0,21,0.00,,,-99.99,FreeWX-Wi 1.02,2013-03-29 17:40:00,
2013-03-29 13:45:00,58.1,18.3,30.03,West,265,2.0,6.3,21,0.00,,,-99.99,FreeWX-Wi 1.02,2013-03-29 17:45:00,
2013-03-29 13:50:00,58.6,18.9,30.03,West,261,2.0,5.4,21,0.00,,,-99.99,FreeWX-Wi 1.02,2013-03-29 17:50:00,
2013-03-29 13:55:00,63.1,21.4,30.03,WSW,257,2.0,5.4,20,0.00,,,-99.99,FreeWX-Wi 1.02,2013-03-29 17:55:00,
2013-03-29 14:01:00,65.1,21.9,30.03,WSW,247,2.0,4.9,19,0.00,,,-99.99,FreeWX-Wi 1.02,2013-03-29 18:01:00,
2013-03-29 14:06:00,64.8,21.6,30.03,WSW,245,2.0,5.8,19,0.00,,,-99.99,FreeWX-Wi 1.02,2013-03-29 18:06:00,
2013-03-29 14:11:00,64.0,22.1,30.03,SW,232,2.0,5.8,20,0.00,,,-99.99,FreeWX-Wi 1.02,2013-03-29 18:11:00,
2013-03-29 14:16:00,63.5,21.7,30.03,SW,215,2.0,5.4,20,0.00,,,-99.99,FreeWX-Wi 1.02,2013-03-29 18:16:00,
2013-03-29 14:21:00,63.3,21.6,30.03,SSW,213,2.0,5.4,20,0.00,,,-99.99,FreeWX-Wi 1.02,2013-03-29 18:21:00,
2013-03-29 14:26:00,63.3,21.6,30.03,SW,223,2.0,8.1,20,0.00,,,-99.99,FreeWX-Wi 1.02,2013-03-29 18:26:00,
2013-03-29 14:31:00,63.9,22.1,30.03,SW,224,3.0,5.8,20,0.00,,,-99.99,FreeWX-Wi 1.02,2013-03-29 18:31:00,
2013-03-29 14:36:00,61.7,20.3,30.03,SW,223,3.0,5.4,20,0.00,,,-99.99,FreeWX-Wi 1.02,2013-03-29 18:36:00,
2013-03-29 14:41:00,61.2,19.8,30.00,SW,218,2.0,5.4,20,0.00,,,-99.99,FreeWX-Wi 1.02,2013-03-29 18:41:00,
2013-03-29 14:46:00,62.8,21.2,30.00,SSW,208,2.0,5.4,20,0.00,,,-99.99,FreeWX-Wi 1.02,2013-03-29 18:46:00,
2013-03-29 14:51:00,62.1,20.5,30.00,SSW,204,2.0,4.0,20,0.00,,,-99.99,FreeWX-Wi 1.02,2013-03-29 18:51:00,
2013-03-29 14:56:00,61.9,20.3,30.03,SSW,201,2.0,5.8,20,0.00,,,-99.99,FreeWX-Wi 1.02,2013-03-29 18:56:00,
2013-03-29 15:01:00,61.0,19.6,30.03,SSW,194,2.0,8.1,20,0.00,,,-99.99,FreeWX-Wi 1.02,2013-03-29 19:01:00,
2013-03-29 15:06:00,59.7,19.8,30.03,SSW,198,2.0,4.0,21,0.00,,,-99.99,FreeWX-Wi 1.02,2013-03-29 19:06:00,
2013-03-29 15:11:00,59.4,19.4,30.00,SSW,194,3.0,8.1,21,0.00,,,-99.99,FreeWX-Wi 1.02,2013-03-29 19:11:00,
2013-03-29 15:16:00,59.0,19.2,30.00,SSW,198,3.0,6.3,21,0.00,,,-99.99,FreeWX-Wi 1.02,2013-03-29 19:16:00,
2013-03-29 15:26:00,57.9,18.3,30.00,SSW,194,3.0,6.3,21,0.00,,,-99.99,FreeWX-Wi 1.02,2013-03-29 19:26:00,
2013-03-29 15:31:00,58.1,18.3,30.00,SSW,197,3.0,7.2,21,0.00,,,-99.99,FreeWX-Wi 1.02,2013-03-29 19:31:00,
2013-03-29 15:36:00,58.5,18.7,30.00,SSW,211,3.0,4.0,21,0.00,,,-99.99,FreeWX-Wi 1.02,2013-03-29 19:36:00,
2013-03-29 15:41:00,59.0,19.2,30.00,SSW,210,2.0,4.9,21,0.00,,,-99.99,FreeWX-Wi 1.02,2013-03-29 19:41:00,
2013-03-29 15:46:00,60.3,20.1,30.00,SW,222,2.0,5.4,21,0.00,,,-99.99,FreeWX-Wi 1.02,2013-03-29 19:46:00,
2013-03-29 15:51:00,61.5,20.1,30.00,SW,229,2.0,5.8,20,0.00,,,-99.99,FreeWX-Wi 1.02,2013-03-29 19:51:00,
2013-03-29 15:56:00,60.1,19.9,30.00,SW,230,2.0,4.0,21,0.00,,,-99.99,FreeWX-Wi 1.02,2013-03-29 19:56:00,
2013-03-29 16:01:00,58.5,18.7,30.00,SSW,210,2.0,4.0,21,0.00,,,-99.99,FreeWX-Wi 1.02,2013-03-29 20:01:00,
2013-03-29 16:06:00,56.8,17.4,30.00,SSW,209,2.0,4.9,21,0.00,,,-99.99,FreeWX-Wi 1.02,2013-03-29 20:06:00,
2013-03-29 16:11:00,57.7,18.1,30.00,SSW,205,2.0,4.0,21,0.00,,,-99.99,FreeWX-Wi 1.02,2013-03-29 20:11:00,
2013-03-29 16:17:00,56.5,17.1,30.00,South,186,2.0,4.0,21,0.00,,,-99.99,FreeWX-Wi 1.02,2013-03-29 20:17:00,
2013-03-29 16:22:00,55.9,16.5,30.00,South,179,2.0,5.4,21,0.00,,,-99.99,FreeWX-Wi 1.02,2013-03-29 20:22:00,
2013-03-29 16:27:00,55.0,16.9,30.00,SSW,196,2.0,4.0,22,0.00,,,-99.99,FreeWX-Wi 1.02,2013-03-29 20:27:00,
2013-03-29 16:37:00,53.1,15.3,30.00,SSW,195,1.0,4.0,22,0.00,,,-99.99,FreeWX-Wi 1.02,2013-03-29 20:37:00,
2013-03-29 16:42:00,52.9,15.1,30.00,SSW,201,1.0,4.0,22,0.00,,,-99.99,FreeWX-Wi 1.02,2013-03-29 20:42:00,
2013-03-29 16:47:00,52.7,14.9,30.00,SSW,200,1.0,3.6,22,0.00,,,-99.99,FreeWX-Wi 1.02,2013-03-29 20:47:00,
2013-03-29 16:52:00,52.7,14.9,30.00,SSW,197,1.0,2.7,22,0.00,,,-99.99,FreeWX-Wi 1.02,2013-03-29 20:52:00,
2013-03-29 16:57:00,52.9,15.1,30.00,SSW,192,1.0,0.0,22,0.00,,,-99.99,FreeWX-Wi 1.02,2013-03-29 20:57:00,
2013-03-29 17:02:00,53.4,15.6,30.00,South,183,1.0,3.1,22,0.00,,,-99.99,FreeWX-Wi 1.02,2013-03-29 21:02:00,
2013-03-29 17:07:00,54.0,16.0,30.00,SSE,167,1.0,0.0,22,0.00,,,-99.99,FreeWX-Wi 1.02,2013-03-29 21:07:00,
2013-03-29 17:12:00,53.8,15.8,30.00,North,-999,0.0,0.0,22,0.00,,,-99.99,FreeWX-Wi 1.02,2013-03-29 21:12:00,
2013-03-29 17:17:00,53.6,15.6,30.00,North,-999,0.0,3.1,22,0.00,,,-99.99,FreeWX-Wi 1.02,2013-03-29 21:17:00,
2013-03-29 17:22:00,53.6,15.6,30.00,North,-999,0.0,2.2,22,0.00,,,-99.99,FreeWX-Wi 1.02,2013-03-29 21:22:00,
2013-03-29 17:27:00,53.6,15.6,30.00,North,-999,0.0,3.6,22,0.00,,,-99.99,FreeWX-Wi 1.02,2013-03-29 21:27:00,
2013-03-29 17:32:00,53.4,15.6,30.00,North,355,1.0,4.0,22,0.00,,,-99.99,FreeWX-Wi 1.02,2013-03-29 21:32:00,
2013-03-29 17:37:00,53.2,15.4,30.00,NNW,327,1.0,3.1,22,0.00,,,-99.99,FreeWX-Wi 1.02,2013-03-29 21:37:00,
2013-03-29 17:42:00,53.1,15.3,30.00,NW,305,1.0,4.0,22,0.00,,,-99.99,FreeWX-Wi 1.02,2013-03-29 21:42:00,
2013-03-29 17:47:00,52.9,15.1,30.00,WNW,292,1.0,2.7,22,0.00,,,-99.99,FreeWX-Wi 1.02,2013-03-29 21:47:00,
2013-03-29 17:52:00,52.5,14.7,30.00,WNW,284,1.0,0.0,22,0.00,,,-99.99,FreeWX-Wi 1.02,2013-03-29 21:52:00,
2013-03-29 17:57:00,52.3,14.7,30.00,WNW,287,1.0,4.0,22,0.00,,,-99.99,FreeWX-Wi 1.02,2013-03-29 21:57:00,
2013-03-29 18:02:00,52.3,14.7,30.00,WNW,288,1.0,5.4,22,0.00,,,-99.99,FreeWX-Wi 1.02,2013-03-29 22:02:00,
2013-03-29 18:07:00,52.2,14.5,30.00,WNW,287,1.0,3.1,22,0.00,,,-99.99,FreeWX-Wi 1.02,2013-03-29 22:07:00,
2013-03-29 18:12:00,52.2,14.5,30.00,North,-999,0.0,3.1,22,0.00,,,-99.99,FreeWX-Wi 1.02,2013-03-29 22:12:00,
2013-03-29 18:17:00,52.0,14.4,30.00,WNW,294,1.0,5.8,22,0.00,,,-99.99,FreeWX-Wi 1.02,2013-03-29 22:17:00,
2013-03-29 18:22:00,51.8,14.2,30.00,WNW,299,1.0,0.0,22,0.00,,,-99.99,FreeWX-Wi 1.02,2013-03-29 22:22:00,
2013-03-29 18:28:00,51.6,15.1,30.03,WNW,303,1.0,3.6,23,0.00,,,-99.99,FreeWX-Wi 1.02,2013-03-29 22:28:00,
2013-03-29 18:33:00,51.4,14.9,30.03,NW,305,1.0,4.9,23,0.00,,,-99.99,FreeWX-Wi 1.02,2013-03-29 22:33:00,
2013-03-29 18:38:00,51.3,14.7,30.03,NW,304,1.0,5.8,23,0.00,,,-99.99,FreeWX-Wi 1.02,2013-03-29 22:38:00,
2013-03-29 18:43:00,51.1,14.5,30.03,WNW,296,1.0,0.0,23,0.00,,,-99.99,FreeWX-Wi 1.02,2013-03-29 22:43:00,
2013-03-29 18:48:00,50.7,14.4,30.03,North,-999,0.0,0.0,23,0.00,,,-99.99,FreeWX-Wi 1.02,2013-03-29 22:48:00,
2013-03-29 18:53:00,50.7,14.4,30.03,WNW,293,1.0,5.4,23,0.00,,,-99.99,FreeWX-Wi 1.02,2013-03-29 22:53:00,
2013-03-29 18:58:00,50.5,14.2,30.03,North,-999,0.0,3.1,23,0.00,,,-99.99,FreeWX-Wi 1.02,2013-03-29 22:58:00,
2013-03-29 19:03:00,50.2,13.8,30.03,North,-999,0.0,0.0,23,0.00,,,-99.99,FreeWX-Wi 1.02,2013-03-29 23:03:00,
2013-03-29 19:08:00,50.0,13.6,30.03,North,-999,0.0,3.6,23,0.00,,,-99.99,FreeWX-Wi 1.02,2013-03-29 23:08:00,
2013-03-29 19:13:00,49.8,13.5,30.03,North,-999,0.0,3.6,23,0.00,,,-99.99,FreeWX-Wi 1.02,2013-03-29 23:13:00,
2013-03-29 19:18:00,49.6,13.5,30.03,North,-999,0.0,3.1,23,0.00,,,-99.99,FreeWX-Wi 1.02,2013-03-29 23:18:00,
2013-03-29 19:23:00,49.5,13.3,30.03,North,-999,0.0,3.1,23,0.00,,,-99.99,FreeWX-Wi 1.02,2013-03-29 23:23:00,
2013-03-29 19:28:00,49.5,13.3,30.03,North,-999,0.0,4.9,23,0.00,,,-99.99,FreeWX-Wi 1.02,2013-03-29 23:28:00,
2013-03-29 19:33:00,49.5,13.3,30.03,WNW,290,1.0,2.7,23,0.00,,,-99.99,FreeWX-Wi 1.02,2013-03-29 23:33:00,
2013-03-29 19:38:00,49.1,12.9,30.03,North,-999,0.0,2.7,23,0.00,,,-99.99,FreeWX-Wi 1.02,2013-03-29 23:38:00,
2013-03-29 19:43:00,49.1,12.9,30.03,NW,305,1.0,4.0,23,0.00,,,-99.99,FreeWX-Wi 1.02,2013-03-29 23:43:00,
2013-03-29 19:48:00,49.1,12.9,30.03,NW,316,1.0,4.0,23,0.00,,,-99.99,FreeWX-Wi 1.02,2013-03-29 23:48:00,
2013-03-29 19:53:00,48.6,12.4,30.03,NW,322,1.0,5.8,23,0.00,,,-99.99,FreeWX-Wi 1.02,2013-03-29 23:53:00,
2013-03-29 19:58:00,47.8,11.8,30.03,NW,321,2.0,5.4,23,0.00,,,-99.99,FreeWX-Wi 1.02,2013-03-29 23:58:00,
2013-03-29 20:03:00,47.5,11.5,30.03,NW,320,2.0,4.0,23,0.00,,,-99.99,FreeWX-Wi 1.02,2013-03-30 00:03:00,
2013-03-29 20:08:00,47.1,11.3,30.03,NW,321,2.0,4.9,23,0.00,,,-99.99,FreeWX-Wi 1.02,2013-03-30 00:08:00,
2013-03-29 20:13:00,47.1,11.3,30.03,NW,319,2.0,4.9,23,0.00,,,-99.99,FreeWX-Wi 1.02,2013-03-30 00:13:00,
2013-03-29 20:18:00,47.1,11.3,30.03,NW,314,3.0,4.0,23,0.00,,,-99.99,FreeWX-Wi 1.02,2013-03-30 00:18:00,
2013-03-29 20:23:00,46.9,11.1,30.03,NW,319,2.0,4.0,23,0.00,,,-99.99,FreeWX-Wi 1.02,2013-03-30 00:23:00,
2013-03-29 20:28:00,46.9,11.1,30.06,NW,319,2.0,4.0,23,0.00,,,-99.99,FreeWX-Wi 1.02,2013-03-30 00:28:00,
2013-03-29 20:33:00,46.6,10.8,30.06,NW,321,2.0,3.6,23,0.00,,,-99.99,FreeWX-Wi 1.02,2013-03-30 00:33:00,
2013-03-29 20:38:00,46.6,10.8,30.06,NW,323,2.0,4.9,23,0.00,,,-99.99,FreeWX-Wi 1.02,2013-03-30 00:38:00,
2013-03-29 20:43:00,46.2,11.5,30.06,NW,321,2.0,3.1,24,0.00,,,-99.99,FreeWX-Wi 1.02,2013-03-30 00:43:00,
2013-03-29 20:48:00,46.0,11.3,30.06,NW,315,2.0,3.6,24,0.00,,,-99.99,FreeWX-Wi 1.02,2013-03-30 00:48:00,
2013-03-29 20:53:00,45.9,11.1,30.06,NW,318,2.0,3.1,24,0.00,,,-99.99,FreeWX-Wi 1.02,2013-03-30 00:53:00,
2013-03-29 20:58:00,45.3,10.8,30.06,NW,319,2.0,4.9,24,0.00,,,-99.99,FreeWX-Wi 1.02,2013-03-30 00:58:00,
2013-03-29 21:03:00,45.0,10.4,30.06,NW,320,1.0,2.7,24,0.00,,,-99.99,FreeWX-Wi 1.02,2013-03-30 01:03:00,
2013-03-29 21:08:00,44.8,10.2,30.06,NW,322,1.0,3.6,24,0.00,,,-99.99,FreeWX-Wi 1.02,2013-03-30 01:08:00,
2013-03-29 21:13:00,44.8,10.2,30.06,NW,322,1.0,3.6,24,0.00,,,-99.99,FreeWX-Wi 1.02,2013-03-30 01:13:00,
2013-03-29 21:18:00,44.8,10.2,30.06,North,-999,0.0,3.1,24,0.00,,,-99.99,FreeWX-Wi 1.02,2013-03-30 01:18:00,
2013-03-29 21:23:00,44.8,10.2,30.06,North,-999,0.0,3.6,24,0.00,,,-99.99,FreeWX-Wi 1.02,2013-03-30 01:23:00,
2013-03-29 21:28:00,45.0,10.4,30.06,North,-999,0.0,3.1,24,0.00,,,-99.99,FreeWX-Wi 1.02,2013-03-30 01:28:00,
2013-03-29 21:33:00,45.0,10.4,30.06,North,-999,0.0,4.0,24,0.00,,,-99.99,FreeWX-Wi 1.02,2013-03-30 01:33:00,
2013-03-29 21:38:00,45.0,10.4,30.06,North,-999,0.0,3.6,24,0.00,,,-99.99,FreeWX-Wi 1.02,2013-03-30 01:38:00,
2013-03-29 21:43:00,45.1,10.6,30.06,NW,319,1.0,4.0,24,0.00,,,-99.99,FreeWX-Wi 1.02,2013-03-30 01:43:00,
2013-03-29 21:48:00,45.1,10.6,30.06,NW,322,1.0,4.0,24,0.00,,,-99.99,FreeWX-Wi 1.02,2013-03-30 01:48:00,
2013-03-29 21:53:00,45.1,10.6,30.06,NW,321,1.0,0.0,24,0.00,,,-99.99,FreeWX-Wi 1.02,2013-03-30 01:53:00,
2013-03-29 21:58:00,45.1,10.6,30.06,NW,319,2.0,5.4,24,0.00,,,-99.99,FreeWX-Wi 1.02,2013-03-30 01:58:00,
2013-03-29 22:03:00,45.0,10.4,30.06,NW,316,2.0,4.0,24,0.00,,,-99.99,FreeWX-Wi 1.02,2013-03-30 02:03:00,
2013-03-29 22:08:00,45.0,10.4,30.06,NW,315,2.0,4.0,24,0.00,,,-99.99,FreeWX-Wi 1.02,2013-03-30 02:08:00,
2013-03-29 22:13:00,45.0,10.4,30.06,NW,313,2.0,4.0,24,0.00,,,-99.99,FreeWX-Wi 1.02,2013-03-30 02:13:00,
2013-03-29 22:18:00,44.8,10.2,30.06,NW,305,2.0,2.2,24,0.00,,,-99.99,FreeWX-Wi 1.02,2013-03-30 02:18:00,
2013-03-29 22:23:00,44.8,10.2,30.06,WNW,303,2.0,3.6,24,0.00,,,-99.99,FreeWX-Wi 1.02,2013-03-30 02:23:00,
2013-03-29 22:28:00,44.8,10.2,30.09,NW,306,2.0,4.9,24,0.00,,,-99.99,FreeWX-Wi 1.02,2013-03-30 02:28:00,
2013-03-29 22:33:00,44.6,10.0,30.09,NW,305,1.0,3.6,24,0.00,,,-99.99,FreeWX-Wi 1.02,2013-03-30 02:33:00,
2013-03-29 22:38:00,44.6,10.0,30.09,WNW,300,1.0,3.1,24,0.00,,,-99.99,FreeWX-Wi 1.02,2013-03-30 02:38:00,
2013-03-29 22:43:00,44.2,9.7,30.09,WNW,299,1.0,2.7,24,0.00,,,-99.99,FreeWX-Wi 1.02,2013-03-30 02:43:00,
2013-03-29 22:48:00,44.2,9.7,30.09,NW,307,1.0,3.1,24,0.00,,,-99.99,FreeWX-Wi 1.02,2013-03-30 02:48:00,
2013-03-29 22:53:00,44.2,9.7,30.09,NW,310,1.0,5.4,24,0.00,,,-99.99,FreeWX-Wi 1.02,2013-03-30 02:53:00,
2013-03-29 22:58:00,44.2,9.7,30.06,NW,308,1.0,4.9,24,0.00,,,-99.99,FreeWX-Wi 1.02,2013-03-30 02:58:00,
2013-03-29 23:03:00,44.2,9.7,30.06,NW,310,1.0,4.0,24,0.00,,,-99.99,FreeWX-Wi 1.02,2013-03-30 03:03:00,
2013-03-29 23:08:00,44.1,9.7,30.06,NW,318,1.0,0.0,24,0.00,,,-99.99,FreeWX-Wi 1.02,2013-03-30 03:08:00,
2013-03-29 23:13:00,43.9,9.5,30.06,NW,321,1.0,2.2,24,0.00,,,-99.99,FreeWX-Wi 1.02,2013-03-30 03:13:00,
2013-03-29 23:18:00,43.9,9.5,30.06,North,-999,0.0,0.0,24,0.00,,,-99.99,FreeWX-Wi 1.02,2013-03-30 03:18:00,
2013-03-29 23:23:00,43.7,9.3,30.06,North,-999,0.0,0.0,24,0.00,,,-99.99,FreeWX-Wi 1.02,2013-03-30 03:23:00,
2013-03-29 23:28:00,43.7,9.3,30.09,North,-999,0.0,2.7,24,0.00,,,-99.99,FreeWX-Wi 1.02,2013-03-30 03:28:00,
2013-03-29 23:33:00,43.5,9.1,30.09,North,-999,0.0,0.0,24,0.00,,,-99.99,FreeWX-Wi 1.02,2013-03-30 03:33:00,
2013-03-29 23:38:00,43.3,9.0,30.09,North,-999,0.0,2.7,24,0.00,,,-99.99,FreeWX-Wi 1.02,2013-03-30 03:38:00,
2013-03-29 23:44:00,43.2,8.8,30.09,North,-999,0.0,3.1,24,0.00,,,-99.99,FreeWX-Wi 1.02,2013-03-30 03:44:00,
2013-03-29 23:49:00,43.0,8.8,30.09,North,-999,0.0,4.0,24,0.00,,,-99.99,FreeWX-Wi 1.02,2013-03-30 03:49:00,
2013-03-29 23:54:00,43.0,8.8,30.09,North,-999,0.0,3.6,24,0.00,,,-99.99,FreeWX-Wi 1.02,2013-03-30 03:54:00,
2013-03-29 23:59:00,43.0,8.8,30.09,WNW,302,1.0,2.7,24,0.00,,,-99.99,FreeWX-Wi 1.02,2013-03-30 03:59:00,